Theta_e
344 346 347 347 347 348 350 350 351 351 352 351 351 351 353 353 354 353 355 356 354 353 352 352 351 351 352 353 351 354 357 359 359 359 360 360 363 364 367 367 370 371 371 371 370 370 369 369 369 369 368 364 358 357 358 360 360 360 359 358 352 351 351 350 351 353 353 350 355 353 355 357 358 361 358 357 357 357 359 358 360 360 362 361 364
344 344 346 347 347 348 349 350 351 349 350 351 351 351 353 354 353 354 355 354 355 354 354 353 355 353 353 353 352 352 355 355 355 358 356 357 364 367 368 368 370 370 371 372 371 370 369 367 369 368 368 367 360 360 359 359 359 359 360 354 354 348 350 348 350 350 346 341 342 345 348 352 357 356 353 352 354 355 356 358 359 357 356 357 360
342 343 345 346 347 348 348 349 350 350 350 350 351 351 352 353 354 355 355 354 355 356 356 355 357 358 356 355 353 352 356 358 355 357 359 357 361 366 368 369 370 369 370 371 370 370 369 367 367 368 369 370 366 361 358 360 360 360 360 350 347 349 350 351 351 350 343 347 350 342 337 335 348 348 349 349 350 352 354 354 355 354 354 357 359
340 342 343 345 346 347 348 348 350 350 350 350 350 351 351 353 354 355 355 355 355 357 357 359 359 360 359 358 356 354 354 357 360 361 361 359 359 363 367 369 369 368 368 369 369 370 370 368 367 366 370 371 369 367 364 361 358 358 357 353 350 343 344 346 351 351 351 347 336 339 340 338 332 338 343 347 349 350 350 350 354 354 355 358 360
340 341 343 344 345 345 347 348 349 349 349 350 350 350 350 352 354 355 355 355 356 357 357 359 358 358 357 357 357 356 357 355 355 353 356 359 360 362 362 367 368 367 368 369 368 369 370 370 367 367 367 370 369 367 366 365 366 365 362 358 350 344 341 346 349 352 353 355 347 341 337 336 333 336 337 344 345 345 347 348 353 354 352 358 356
341 341 342 343 345 346 347 348 348 349 349 351 351 351 351 352 354 355 355 355 355 357 358 357 357 355 353 351 349 349 349 349 350 350 351 354 354 360 363 366 367 368 369 368 368 368 369 369 369 367 366 367 367 366 367 367 365 364 363 360 353 351 349 345 347 357 353 354 354 350 348 335 335 341 336 334 350 345 349 350 352 351 352 357 361
341 342 343 343 345 345 347 348 348 348 350 352 352 352 352 353 354 355 355 355 355 357 358 357 356 355 354 352 351 350 348 352 356 356 355 357 360 361 363 366 368 366 367 368 368 369 369 369 369 368 366 367 369 369 367 365 364 364 364 361 357 356 349 345 345 345 354 354 350 347 350 348 343 341 337 339 336 347 347 344 345 350 351 354 355
340 341 342 344 345 345 345 348 348 349 351 352 352 352 353 354 355 355 356 356 356 357 357 357 355 355 355 354 353 352 350 354 358 359 361 363 361 362 362 364 368 368 367 369 369 368 369 368 369 368 367 366 367 366 364 366 367 367 366 364 363 358 351 346 342 342 344 347 350 350 350 352 352 348 347 341 339 336 340 346 346 347 349 350 350
341 340 341 343 344 345 347 347 349 350 351 351 352 353 354 355 355 356 355 356 356 357 357 357 357 356 356 355 354 355 354 356 358 359 359 361 361 362 363 363 367 369 368 368 369 369 368 368 369 368 367 367 368 366 366 367 368 366 366 364 362 360 355 352 349 347 343 341 351 351 351 352 351 350 350 349 343 338 336 338 340 346 347 347 349
341 341 342 344 345 346 347 349 349 349 351 353 353 354 354 355 355 355 355 356 357 357 357 357 357 357 356 356 355 355 356 357 357 357 358 360 359 362 363 363 364 366 369 369 369 369 369 369 367 366 367 365 366 365 366 367 369 368 366 365 365 362 360 357 353 353 350 349 351 353 349 350 349 349 346 344 344 345 337 336 338 338 339 345 351
340 341 342 344 346 346 347 347 349 350 351 353 353 354 354 354 355 355 356 356 357 357 357 356 357 357 356 356 356 355 356 356 356 357 357 359 358 360 361 363 364 364 365 368 368 368 368 369 366 365 367 367 366 367 367 364 363 365 367 367 366 363 362 359 358 357 355 354 353 353 350 346 345 342 344 344 343 342 341 337 337 340 339 339 348
340 340 341 343 344 345 346 347 348 349 351 352 352 353 354 355 355 355 356 357 358 357 357 356 356 356 357 357 356 356 357 355 355 355 357 357 358 359 362 363 364 365 367 365 367 366 368 367 368 367 367 366 366 368 368 366 364 365 367 367 366 366 366 362 360 357 355 355 352 349 350 349 349 347 345 348 346 343 343 340 339 344 344 343 347
339 340 341 341 342 343 344 346 348 349 350 351 351 352 354 355 356 355 356 358 358 358 357 357 357 356 356 357 357 358 358 357 357 356 358 357 358 359 362 360 363 363 365 364 365 366 368 368 367 367 366 367 367 367 367 369 368 366 368 367 366 365 364 364 360 359 356 354 351 349 348 348 348 351 351 346 347 349 347 340 340 342 339 340 347
339 339 340 341 342 343 345 345 347 349 349 350 351 352 354 354 356 355 356 358 359 358 357 357 357 358 358 358 357 358 358 358 357 356 358 359 360 359 359 359 361 362 363 365 365 366 367 368 369 368 369 369 369 369 368 369 369 366 367 367 366 367 367 365 363 361 360 358 357 353 351 348 348 349 349 348 345 346 344 342 342 345 343 340 347
338 339 339 340 341 343 344 345 347 347 348 349 350 352 354 354 355 356 356 358 359 358 358 357 357 358 359 359 359 359 357 357 358 358 359 359 359 359 361 360 360 363 364 368 369 368 368 369 369 368 369 369 369 369 368 368 369 368 368 368 367 367 367 364 363 361 358 358 357 355 353 352 350 351 346 348 346 345 345 346 345 340 338 338 341
338 338 339 341 343 344 344 345 346 346 348 349 350 353 354 354 356 357 357 358 358 359 358 358 358 359 360 359 359 359 359 359 359 360 361 360 361 360 362 363 363 364 367 368 368 368 368 368 369 368 370 369 369 369 369 367 369 366 366 367 367 366 366 365 364 363 359 360 358 358 356 350 352 351 351 350 350 349 349 350 348 345 339 334 338
337 338 338 341 342 343 343 345 345 346 347 347 351 353 354 355 355 356 357 358 358 359 359 359 360 359 359 359 359 358 358 357 356 358 356 359 361 360 360 361 363 366 366 367 367 369 369 369 368 366 369 369 369 369 369 369 370 368 365 367 366 365 366 366 364 364 363 359 358 357 355 353 355 358 355 353 355 356 352 351 350 345 344 339 336
339 339 340 341 342 342 342 344 345 346 346 348 352 353 355 355 355 355 356 356 357 358 358 359 359 359 359 359 359 359 357 357 357 357 358 359 360 360 360 360 361 361 363 363 366 367 368 368 368 368 368 368 368 368 369 369 370 367 367 368 367 368 367 366 366 364 363 361 359 357 355 353 355 355 354 355 356 357 352 352 351 350 350 342 341
338 338 340 340 341 341 342 343 345 346 348 349 351 351 353 354 354 354 355 356 356 356 358 359 360 358 358 359 359 359 358 358 358 360 360 359 357 358 358 359 359 362 364 365 365 365 366 367 368 367 368 367 368 367 369 369 370 367 366 366 367 369 366 365 367 365 363 362 360 357 356 354 356 354 354 354 355 354 353 352 352 352 350 348 345
337 338 339 339 340 341 341 342 343 345 346 347 348 349 350 351 354 354 355 356 357 357 358 358 359 359 358 359 360 360 360 359 359 360 358 358 358 357 358 357 359 360 360 363 363 363 364 364 364 364 364 366 367 366 367 368 369 367 366 364 365 369 366 365 365 365 362 362 362 360 359 358 358 357 356 355 356 356 355 352 353 353 352 351 349
337 338 339 339 340 341 341 343 343 345 347 347 347 348 348 350 351 352 353 354 354 355 357 358 359 358 360 359 359 360 359 359 359 359 358 358 359 359 358 358 361 359 360 360 361 362 364 363 362 364 363 365 367 366 367 368 367 365 365 365 367 368 367 365 366 366 364 363 363 361 361 361 360 357 357 357 355 356 356 354 354 353 350 353 350
337 338 339 339 341 341 341 342 343 344 344 344 345 347 348 349 350 351 352 353 353 354 357 358 358 359 359 359 359 359 359 359 358 358 358 358 359 359 360 360 359 360 360 359 361 361 363 363 362 364 365 366 368 368 366 367 366 365 364 363 363 364 364 366 367 366 366 364 364 363 361 361 361 358 358 356 357 355 355 353 353 352 351 352 355
336 338 338 339 341 341 341 342 342 343 344 344 345 345 346 348 349 350 350 351 352 354 356 358 358 359 359 359 359 359 359 359 357 357 356 356 358 359 360 359 358 358 360 360 360 360 363 364 363 363 365 365 367 367 367 367 366 366 365 364 364 365 364 363 364 365 365 366 363 363 362 363 361 359 358 358 358 357 356 355 354 355 354 353 355
336 337 338 340 341 343 344 343 343 343 345 344 344 345 346 347 348 349 349 351 352 353 355 358 358 358 359 359 359 359 358 357 356 356 356 356 356 358 359 358 358 357 358 361 361 361 363 364 362 363 364 364 365 365 366 366 366 366 366 366 366 365 365 364 364 365 365 365 364 363 362 362 362 360 360 359 359 358 357 357 356 357 357 355 356
336 337 338 340 340 342 344 344 344 345 343 344 344 345 345 347 348 348 349 351 352 354 354 356 356 355 356 358 358 358 357 357 356 356 356 356 356 357 358 358 357 356 358 360 361 362 362 363 360 361 362 363 363 364 365 364 365 366 366 366 366 366 365 364 364 365 365 366 365 363 363 364 363 361 361 360 361 360 359 358 357 358 357 357 356
338 338 339 338 341 343 344 346 345 344 343 346 347 345 345 347 348 349 350 351 352 353 354 354 354 354 356 357 358 357 357 356 356 356 356 356 356 357 357 357 358 357 358 358 360 360 361 362 362 362 363 364 364 365 365 365 363 365 366 365 366 366 364 365 365 364 364 365 365 365 364 364 363 361 361 361 362 362 361 359 358 358 358 358 357
337 339 339 343 345 345 346 348 345 343 344 345 344 344 345 348 348 349 350 351 352 353 354 354 354 354 356 356 357 357 357 356 357 357 357 357 356 356 357 357 358 358 357 357 358 359 361 361 362 362 361 363 364 364 365 366 365 365 365 365 363 364 365 365 365 364 365 365 365 365 365 364 363 363 362 362 363 362 360 361 360 360 359 358 356
338 339 340 341 344 346 346 347 344 343 345 345 345 345 345 348 347 348 350 351 352 353 354 354 354 354 357 357 358 358 358 358 358 359 358 357 357 357 358 358 359 358 357 357 356 357 359 360 361 362 362 363 364 364 365 366 365 364 364 365 365 363 363 364 365 366 365 364 365 365 364 365 365 365 364 364 364 363 363 361 362 361 360 357 356
333 339 342 342 342 344 346 345 345 345 345 345 345 346 347 350 349 350 350 351 354 354 355 354 355 355 357 359 359 359 360 360 359 360 359 358 358 358 358 358 359 358 358 358 358 357 359 359 360 361 362 362 362 362 363 364 364 364 365 363 364 364 363 363 364 364 364 365 364 364 365 365 366 365 355 353 355 356 363 361 363 362 359 358 356
329 335 338 342 343 344 346 347 347 344 345 344 346 347 348 347 347 348 350 351 354 355 355 354 354 356 359 360 360 360 360 360 359 359 359 359 358 358 357 358 358 358 359 360 360 359 358 358 359 361 362 362 361 362 355 341 346 363 364 363 363 364 364 363 363 363 363 363 364 364 363 364 356 353 348 341 335 335 337 352 362 364 361 360 358
326 332 338 341 343 344 346 347 347 347 347 345 347 348 347 346 348 348 350 351 354 356 354 354 355 358 359 360 360 360 360 359 359 359 359 359 358 358 358 359 358 359 359 360 359 358 358 358 358 359 360 360 361 360 340 333 333 337 357 364 363 364 365 364 363 364 363 362 363 364 365 365 362 351 353 338 335 332 332 330 331 335 346 359 358
321 327 334 340 340 343 344 345 344 345 346 347 349 348 348 346 347 347 349 351 352 353 353 355 357 359 359 359 358 359 359 359 359 359 359 359 358 358 358 359 358 358 359 360 359 359 359 358 358 358 358 359 360 346 333 331 331 330 338 361 362 362 362 363 362 362 362 363 362 362 363 364 365 365 365 365 349 336 330 329 328 328 329 330 335
326 326 332 335 338 341 344 343 344 344 345 346 348 346 347 348 349 350 351 351 350 351 353 356 357 357 358 359 359 359 358 358 359 359 359 360 359 358 358 358 357 358 359 359 359 358 359 359 359 359 357 358 359 341 331 329 329 328 328 342 360 362 361 362 362 362 362 363 364 363 363 364 363 362 362 364 366 366 337 327 327 327 327 326 327
330 328 328 335 340 342 344 344 346 346 345 346 348 348 349 350 351 352 351 352 352 352 354 355 356 357 358 359 359 358 357 358 359 359 359 359 358 358 357 357 357 358 358 358 358 359 359 360 360 360 360 360 360 343 329 327 326 326 327 333 359 360 361 361 362 363 362 363 363 363 363 363 365 366 367 365 366 366 367 365 359 355 355 349 330
332 332 332 339 343 345 346 346 345 345 347 347 348 349 351 350 351 351 352 354 353 353 355 356 356 357 358 358 358 358 358 358 359 359 359 358 357 358 357 356 356 356 358 358 357 358 359 360 359 359 360 359 360 337 325 324 323 322 324 328 357 359 360 361 361 362 364 363 364 364 364 363 365 366 367 366 367 366 366 363 363 362 361 362 364
334 335 338 343 340 342 343 345 346 345 345 347 348 348 348 349 352 351 351 353 354 356 356 356 356 356 356 357 357 358 358 358 358 358 357 357 358 358 358 357 357 356 358 358 358 358 358 359 359 359 358 358 359 333 325 323 321 321 323 344 356 359 359 359 361 362 363 365 365 364 364 364 365 365 354 338 346 366 365 362 361 361 361 362 363
338 337 339 346 346 347 345 350 347 346 346 346 347 348 348 349 349 350 352 352 353 354 353 356 355 355 355 356 356 357 357 358 358 357 356 356 357 358 359 359 357 357 356 356 358 357 359 358 358 359 358 358 359 340 324 321 319 319 325 351 356 358 359 360 360 362 363 364 364 365 366 364 364 366 349 335 330 334 362 361 360 360 360 361 359
335 341 344 347 347 347 350 346 347 346 347 348 349 348 349 349 349 349 351 350 351 353 355 357 355 355 356 356 357 357 357 357 357 356 356 356 357 358 358 359 357 356 355 357 358 358 359 359 358 358 358 358 359 342 320 319 318 317 331 354 357 358 359 360 360 362 363 363 364 357 363 365 365 365 341 331 329 340 359 361 360 358 358 357 358
337 340 341 343 347 347 347 349 348 345 348 350 349 349 349 349 350 349 349 350 351 354 355 355 355 356 357 357 358 358 357 356 356 356 356 356 357 358 358 359 357 357 357 359 359 358 358 360 359 358 350 355 359 346 318 319 316 315 331 357 358 358 358 359 359 360 363 363 365 360 351 352 356 354 334 330 327 339 360 361 360 358 356 356 357
340 341 345 349 352 351 346 346 345 349 350 350 349 348 349 349 349 349 349 351 353 356 357 357 357 358 359 359 359 359 358 357 357 357 358 358 359 358 358 358 358 358 357 358 358 358 358 359 359 359 358 358 358 360 345 316 316 314 319 355 360 357 356 357 359 359 359 362 363 364 356 332 328 328 327 324 323 322 354 361 361 358 356 356 360
341 342 349 348 349 347 345 344 349 354 349 349 349 349 351 353 352 351 351 353 357 360 360 359 359 357 358 358 358 359 358 357 358 358 358 358 359 358 358 358 357 357 358 358 358 359 358 358 359 360 359 359 359 359 361 315 315 313 315 328 358 358 358 358 359 358 358 358 360 361 362 342 325 323 321 318 317 315 325 356 359 359 361 355 342
351 353 349 347 344 348 347 346 353 351 350 351 353 353 355 354 353 352 355 356 359 360 360 359 359 357 357 357 357 359 359 358 359 360 359 359 360 360 359 359 358 358 358 358 359 358 358 357 359 359 360 360 359 349 361 322 315 313 313 316 350 359 358 359 358 359 358 358 359 360 363 350 326 321 319 316 314 315 315 342 354 333 325 323 347
349 350 352 348 346 345 344 348 349 349 351 353 353 353 354 355 353 356 356 358 359 359 360 360 360 358 358 358 358 359 358 358 359 361 361 359 360 360 360 361 360 359 359 358 359 358 358 357 358 359 359 360 362 360 337 348 316 313 311 312 322 341 335 360 357 357 358 359 361 363 363 349 322 314 313 312 312 311 317 336 324 319 316 316 329
346 349 351 353 353 353 352 351 350 353 355 355 354 354 354 354 354 359 359 360 362 361 362 360 360 359 359 358 359 359 359 359 361 361 360 360 360 360 360 361 360 358 358 357 356 357 356 355 355 355 358 359 362 362 343 335 336 313 312 310 313 318 328 352 358 357 359 360 360 363 358 318 313 308 308 309 309 314 340 316 311 313 316 324 339
343 345 349 352 353 354 353 353 354 355 357 356 357 355 355 354 359 362 359 359 360 360 360 359 358 359 360 359 359 359 359 359 360 360 359 359 360 360 359 360 360 358 357 356 355 357 355 355 355 355 357 359 360 360 362 345 331 319 313 311 312 314 316 321 351 357 359 361 343 320 308 306 306 304 305 307 309 315 309 310 312 316 329 338 341
343 345 347 349 351 354 355 354 356 357 356 357 358 359 356 359 364 363 362 362 360 360 360 359 359 360 359 359 359 359 360 361 361 361 360 360 360 359 359 360 359 358 358 357 356 356 355 356 356 357 357 359 360 361 361 361 341 332 322 315 314 314 317 319 332 350 333 320 311 309 308 308 310 315 333 341 341 335 316 317 317 324 339 339 339
340 343 347 347 350 349 350 352 352 357 360 360 361 362 365 365 363 365 363 363 362 361 359 360 360 359 361 361 360 359 360 361 363 362 362 362 361 361 361 359 359 357 358 357 357 356 355 355 355 357 358 359 360 360 360 360 358 353 347 338 326 327 320 322 329 340 335 336 326 331 332 325 324 322 328 328 328 325 328 329 331 335 338 337 337
342 344 346 346 347 347 348 349 349 352 357 359 361 362 364 365 366 367 365 365 364 361 358 359 359 359 360 361 361 362 362 361 362 362 361 361 361 362 361 360 358 359 357 356 356 355 355 356 356 357 359 359 359 359 360 359 358 356 354 352 345 340 339 337 338 343 347 346 339 322 323 336 335 336 335 335 334 334 333 333 336 336 336 337 334
340 344 345 344 346 346 347 347 348 351 353 355 357 359 361 363 365 366 367 364 364 363 363 364 363 362 362 362 363 363 362 362 363 364 367 369 368 363 362 362 363 364 362 360 360 359 358 360 360 360 359 359 360 360 360 339 358 336 351 356 352 347 346 343 337 328 346 342 341 340 340 339 339 337 335 334 332 332 333 335 336 337 337 337 338
341 345 345 345 346 346 346 345 347 350 352 353 354 356 359 361 365 367 366 363 363 362 362 363 364 364 365 363 363 363 362 362 363 364 353 337 308 299 313 359 367 351 340 333 336 361 364 363 361 363 365 362 361 363 337 322 322 319 319 323 327 326 325 337 322 319 335 343 343 343 341 339 337 336 332 331 331 333 333 333 335 329 335 336 336
339 342 344 345 346 346 348 346 347 350 350 351 352 354 357 358 361 366 369 368 365 361 360 360 361 361 359 363 362 363 365 366 366 361 355 349 345 336 301 296 305 315 324 322 318 321 327 335 360 365 360 338 334 334 321 313 312 311 310 310 314 310 309 307 311 336 342 344 342 341 339 339 336 334 333 333 333 332 331 332 332 334 335 333 332
Wind_Speed
16 18 20 21 20 17 16 15 15 15 15 15 15 15 15 14 13 14 13 13 12 12 12 12 11 10 10 8 8 7 6 6 5 5 6 5 5 5 4 4 4 4 4 3 3 2 2 2 1 2 2 4 3 3 4 3 3 2 2 2 2 2 1 1 1 1 3 2 2 2 2 1 1 2 1 2 1 1 1 1 1 2 2 2 2
15 16 19 19 18 19 17 15 16 18 16 16 16 16 15 15 15 14 12 14 13 12 11 11 10 10 9 9 8 7 7 6 6 6 7 6 5 5 5 5 4 4 4 4 3 3 3 2 2 3 2 3 6 4 5 4 3 3 3 2 1 2 1 1 2 1 1 1 2 2 1 2 1 1 2 2 2 1 1 2 1 2 2 1 1
17 18 20 19 21 21 17 16 16 18 17 17 16 16 16 15 14 13 13 14 13 13 10 10 9 8 8 6 7 5 5 5 6 5 6 7 6 6 6 5 5 4 4 4 4 4 4 4 3 3 3 2 4 6 4 3 3 4 5 4 2 1 1 1 2 3 1 2 2 0 0 2 2 2 2 3 2 2 2 2 1 2 1 1 1
20 21 22 20 21 20 18 17 17 17 16 16 17 18 14 14 14 14 13 13 12 12 11 10 9 8 7 4 5 5 4 5 5 5 6 7 8 7 6 6 6 5 5 5 4 4 5 5 4 3 3 2 2 3 5 5 6 5 5 4 3 3 2 2 2 1 1 3 2 1 1 1 3 1 2 2 3 3 3 2 2 2 1 1 2
20 20 20 20 21 21 20 18 17 17 17 17 17 16 12 16 15 15 13 13 11 12 12 10 8 8 6 4 5 5 3 5 6 7 8 7 7 7 7 6 6 6 5 6 5 5 5 5 5 4 4 3 3 3 3 3 3 3 5 4 4 3 3 2 2 1 1 3 1 2 2 2 1 2 3 1 2 3 3 2 1 2 2 1 2
19 22 23 23 21 19 19 19 19 18 17 17 16 17 15 15 15 15 12 12 12 13 13 11 10 10 9 9 8 8 8 8 9 10 9 8 9 8 7 7 6 6 5 5 6 5 5 5 5 5 5 4 4 4 3 2 3 3 4 4 3 2 2 2 3 1 1 1 1 2 2 3 3 2 2 1 0 3 2 2 2 3 2 2 3
18 18 18 20 20 20 21 21 20 19 18 16 16 17 17 15 16 16 13 12 12 13 14 13 11 10 12 12 11 10 10 8 8 7 7 6 6 7 6 6 6 7 6 6 6 6 5 5 5 5 5 5 4 4 4 4 3 3 3 3 3 2 2 3 4 3 1 2 2 2 1 2 2 1 2 2 1 2 2 3 3 3 3 4 4
18 20 21 21 22 22 23 22 20 19 18 17 16 16 18 16 16 16 13 12 12 12 14 13 12 12 13 12 11 10 10 8 8 7 6 5 6 7 6 6 6 6 6 6 6 6 6 6 6 5 5 5 4 5 5 4 2 2 3 3 2 3 3 3 4 3 4 3 4 3 3 1 1 3 3 3 3 3 1 2 3 3 4 5 5
20 19 21 22 22 23 21 21 21 20 18 18 17 16 16 16 16 15 15 14 13 15 14 15 13 13 12 12 11 9 9 8 7 7 6 6 7 7 6 6 5 6 6 6 6 7 6 6 6 6 6 6 5 6 6 5 4 4 4 4 4 3 3 3 2 3 4 4 3 3 2 2 1 1 1 2 3 4 4 2 2 2 4 4 5
18 19 20 21 21 22 21 20 20 20 18 17 17 16 16 15 16 17 17 14 13 16 15 16 16 13 12 12 13 10 8 7 7 7 7 7 8 8 7 6 6 6 6 7 6 7 7 7 6 7 7 6 6 7 6 5 4 4 5 5 5 5 3 3 4 2 3 3 3 2 3 2 2 2 2 2 2 3 5 6 5 5 5 2 1
17 18 19 19 19 20 20 21 21 20 17 18 17 17 16 16 17 18 18 14 15 16 17 17 16 14 13 14 14 13 12 10 8 8 8 8 8 9 8 7 6 6 6 6 8 8 8 7 7 7 6 6 6 6 6 6 5 5 4 4 4 5 4 4 3 3 2 2 3 3 4 4 4 4 4 3 4 3 4 6 5 4 6 8 4
18 17 18 20 19 20 19 20 20 21 19 19 18 17 17 16 17 18 17 16 15 16 16 16 15 15 14 15 14 13 13 11 12 11 11 11 10 9 7 6 6 6 6 6 7 8 7 7 7 7 6 6 6 6 6 6 5 4 4 4 4 5 3 3 4 4 4 3 4 4 4 5 4 4 4 2 3 4 4 6 6 5 5 5 4
17 17 16 18 20 20 22 21 20 20 18 20 20 19 18 17 19 19 18 18 16 16 17 17 16 15 15 15 14 12 12 12 12 11 11 10 10 9 8 8 7 7 7 7 7 8 7 7 7 7 6 7 7 6 6 6 5 5 4 5 5 5 5 5 4 5 5 4 4 4 4 4 4 3 2 4 3 2 3 5 7 5 6 7 5
18 18 19 19 19 20 20 21 20 19 20 20 20 19 17 16 19 19 19 18 16 17 17 17 17 16 15 14 13 12 12 12 11 11 11 10 9 10 10 9 8 9 8 7 6 8 7 8 8 8 8 7 7 7 6 6 6 6 6 5 6 5 4 5 5 5 4 5 3 3 4 4 5 4 4 4 5 4 4 5 6 4 5 7 4
18 18 19 20 20 21 20 20 19 19 22 21 19 18 17 17 18 20 19 18 18 18 17 18 16 16 14 14 13 12 12 11 11 10 10 10 9 10 9 9 9 8 8 6 7 7 8 7 8 8 8 8 7 7 6 6 7 6 6 6 5 5 5 5 5 6 5 5 5 4 4 4 4 4 4 4 5 5 6 5 4 7 8 7 6
18 19 20 20 19 20 19 19 19 19 21 20 21 19 18 17 18 20 20 19 19 18 17 17 16 14 15 15 15 14 11 11 10 9 8 10 10 10 9 9 8 7 7 6 7 7 7 7 7 8 7 8 8 8 7 7 7 7 6 6 6 4 5 6 5 5 6 6 6 4 3 5 4 4 4 4 4 5 5 4 3 4 6 9 7
19 20 20 21 20 21 21 21 20 20 21 22 20 19 20 18 18 19 19 18 19 19 18 16 16 15 16 16 15 15 14 14 13 13 14 11 10 10 9 10 9 7 7 7 7 7 7 7 7 8 8 7 8 8 8 7 7 7 7 7 7 6 5 6 5 5 6 6 5 6 5 5 4 3 3 4 3 3 4 4 4 5 5 7 7
22 22 21 21 21 23 23 21 23 23 24 22 20 19 18 18 20 20 19 19 19 19 18 17 16 16 15 16 16 16 15 15 14 13 12 11 10 9 9 8 10 9 8 7 8 8 8 8 8 8 7 8 8 8 8 8 7 7 7 7 7 6 6 5 5 6 6 5 5 5 5 5 5 4 5 4 3 4 4 4 4 4 4 6 6
16 18 17 18 19 20 21 24 25 24 22 22 20 21 19 19 20 21 22 21 21 18 18 15 16 13 13 16 17 15 14 14 13 12 12 11 13 11 12 11 10 9 8 8 8 9 8 8 8 8 8 8 8 8 7 7 8 7 7 7 7 6 6 7 6 6 6 5 6 6 5 5 5 5 5 4 4 4 5 4 4 4 5 6 6
17 18 19 21 22 24 26 25 25 25 24 22 24 21 23 22 20 20 20 19 19 19 17 17 17 15 14 14 15 15 14 14 13 13 12 13 13 12 13 12 11 10 10 10 9 10 10 10 9 9 9 9 9 8 8 8 7 7 7 7 7 7 7 8 8 6 5 5 6 7 6 5 5 4 5 5 5 5 5 5 5 4 5 6 6
16 18 20 22 23 24 24 23 23 22 20 20 22 23 23 21 21 22 22 21 21 20 18 16 15 15 15 16 16 15 16 14 14 14 13 13 12 12 12 11 10 10 10 10 11 11 10 10 10 9 10 9 8 8 8 7 7 8 9 8 8 7 8 7 7 8 7 6 6 7 7 6 5 6 5 5 5 6 5 5 5 5 6 5 6
17 19 20 20 21 22 21 20 18 18 20 23 22 21 22 23 22 22 21 20 21 20 18 17 16 15 17 17 17 15 15 14 15 14 14 13 12 12 11 10 11 11 10 11 11 10 10 10 10 10 10 9 8 9 9 8 8 8 9 8 9 10 10 9 8 8 8 6 6 7 8 7 6 7 6 6 6 6 6 6 6 6 7 7 6
18 19 19 19 20 20 20 21 23 24 23 25 22 22 23 24 23 22 22 22 22 21 18 16 16 16 18 17 16 15 15 16 17 15 16 15 13 13 11 12 12 11 10 11 11 11 10 10 10 10 10 10 9 9 9 9 9 9 9 9 8 9 9 9 10 9 9 7 8 8 8 7 5 6 7 7 7 7 7 7 8 7 7 8 7
15 15 15 16 16 16 16 18 18 18 17 21 21 21 21 21 22 21 23 23 22 19 18 17 17 17 17 16 16 15 17 17 17 15 16 16 14 13 12 13 13 11 11 10 11 11 10 10 10 10 10 10 10 9 9 9 10 10 10 10 9 9 9 9 10 9 9 8 9 8 8 8 7 7 7 7 7 7 7 7 7 7 7 8 7
12 14 15 15 16 18 17 19 19 19 19 20 21 21 21 21 21 22 22 22 21 18 18 18 19 19 18 17 17 16 17 18 18 15 17 17 15 13 12 14 13 12 12 11 10 10 10 10 11 12 11 11 11 10 10 10 9 9 10 10 10 9 10 10 10 10 9 9 9 9 9 7 7 8 8 8 8 8 7 7 7 7 7 7 6
11 12 13 16 17 16 16 17 16 18 20 19 18 20 21 21 22 21 20 20 20 18 19 18 19 19 17 18 18 17 18 19 18 17 17 16 15 14 13 13 13 13 13 12 11 11 11 12 12 11 11 11 10 10 10 11 11 10 9 10 9 10 10 10 10 10 10 10 9 9 9 8 9 9 9 8 8 9 7 8 9 8 7 6 7
11 12 13 13 12 14 16 16 17 21 20 19 21 21 20 19 21 21 20 20 19 18 18 18 19 19 17 18 17 17 17 18 17 16 14 14 15 15 14 14 13 14 13 12 12 13 11 12 12 12 12 11 11 11 10 10 10 10 10 10 10 10 10 9 10 11 10 10 10 9 9 9 10 10 10 9 8 9 9 9 9 9 8 7 8
10 11 12 14 15 15 16 17 19 19 18 18 19 20 21 19 21 20 19 18 16 17 18 18 18 18 16 17 17 17 16 16 15 14 14 14 14 14 14 13 13 14 14 14 14 14 12 12 12 12 12 11 11 11 11 11 10 11 10 10 10 10 10 10 10 10 10 10 10 10 10 10 10 10 10 9 9 9 8 9 8 8 8 9 9
12 13 14 15 16 16 16 18 18 19 19 20 19 19 17 16 18 18 18 20 18 17 18 18 17 17 16 16 15 15 14 14 14 14 14 14 14 14 13 13 13 13 12 14 14 14 13 13 13 12 12 11 11 11 10 10 11 11 11 11 10 11 11 10 10 10 10 10 10 10 10 10 10 10 11 10 10 8 7 9 8 8 9 10 11
12 14 16 16 17 17 17 17 17 20 20 20 18 18 18 19 20 20 19 19 16 17 17 18 18 17 14 14 14 13 13 14 14 14 14 14 14 13 14 14 14 14 13 12 13 13 13 13 13 12 12 11 11 10 11 14 12 10 10 10 9 10 11 10 10 10 10 11 11 11 10 11 11 12 12 14 14 14 13 12 10 8 10 10 10
15 14 16 16 17 17 16 17 18 19 20 20 18 18 19 22 19 19 19 18 18 16 17 17 17 16 14 14 13 13 13 14 14 13 14 14 14 13 13 13 13 13 14 12 12 13 13 13 13 13 13 12 11 10 14 15 15 14 11 10 10 10 10 11 11 10 10 11 10 10 10 10 11 12 13 15 14 15 16 16 17 15 12 13 13
17 16 16 16 17 17 18 20 22 22 21 18 16 16 18 20 20 20 19 18 18 18 18 17 15 14 15 15 14 14 14 14 13 14 14 14 14 14 13 13 13 14 13 12 13 14 13 13 12 13 14 13 12 13 14 15 15 16 13 11 10 10 10 10 11 11 10 10 10 10 10 8 9 11 10 10 13 17 17 16 17 16 16 17 16
16 16 15 17 19 20 21 22 22 21 21 22 20 20 19 19 19 19 17 18 19 19 17 15 15 15 15 15 14 15 15 15 15 15 14 13 14 14 14 14 15 14 12 13 14 13 14 13 13 13 14 14 13 13 15 16 16 16 16 14 11 11 11 11 11 11 11 10 9 9 10 9 9 11 10 12 11 10 14 18 18 17 16 16 18
16 17 17 17 15 16 18 21 21 22 24 23 22 21 18 18 17 16 19 17 17 17 16 16 15 15 15 15 15 15 15 16 15 15 14 14 15 15 15 14 13 13 13 13 14 15 13 13 14 14 13 13 13 12 17 17 16 17 17 14 13 13 13 13 12 11 10 11 11 11 10 10 10 10 9 11 11 11 10 9 9 9 10 14 17
14 14 16 15 16 15 16 17 19 20 17 17 16 16 15 16 17 18 18 15 17 17 15 15 15 15 15 15 16 16 16 15 15 15 14 15 15 14 15 14 13 14 14 14 14 14 13 13 14 14 13 13 13 13 16 18 17 18 18 14 12 13 13 13 13 14 13 12 12 11 11 12 11 10 9 10 10 10 10 11 12 14 13 14 13
12 12 12 12 17 18 19 18 17 18 18 18 18 18 18 18 17 18 17 16 16 15 15 15 15 16 16 16 16 16 15 15 15 15 15 15 14 14 15 13 13 13 12 12 12 13 14 15 15 15 14 14 14 16 17 18 19 18 18 10 10 12 13 13 13 14 13 11 12 12 11 12 12 12 12 13 12 10 11 13 14 14 13 13 12
13 11 11 9 9 9 11 11 13 17 17 18 17 18 18 17 18 17 17 17 16 15 16 16 17 17 17 17 17 16 16 15 15 15 16 15 15 14 14 12 13 13 12 13 13 14 13 14 15 14 15 14 13 13 18 18 18 18 13 10 10 11 11 13 14 13 12 13 12 12 12 11 12 12 13 13 14 11 10 13 14 15 13 13 14
12 8 8 10 11 12 13 15 15 16 16 16 18 18 17 17 18 17 17 18 18 18 16 16 17 17 17 17 16 16 16 16 15 16 16 15 15 13 14 13 14 14 14 13 13 13 13 13 15 15 15 15 14 12 18 18 18 19 16 11 10 10 12 12 13 13 12 12 13 15 13 13 13 13 13 13 13 10 9 12 13 14 14 13 14
9 9 10 12 11 14 15 14 16 16 15 16 19 20 18 17 17 18 19 18 18 16 16 17 17 16 16 16 15 15 16 16 16 16 15 15 15 14 13 12 13 13 13 11 12 12 12 12 14 15 14 16 14 11 17 18 19 19 16 10 11 10 12 14 12 12 11 11 11 11 15 15 14 14 14 12 11 10 10 10 12 13 13 13 13
4 7 10 12 13 14 16 18 18 15 15 17 18 18 19 17 16 18 18 18 18 17 17 15 15 15 15 15 14 15 15 16 15 15 14 14 12 13 14 13 13 12 12 12 12 12 13 12 12 14 13 15 15 13 13 20 19 19 20 12 10 12 15 14 12 12 11 12 11 11 11 16 19 19 18 14 9 11 10 11 11 12 11 13 10
4 5 10 11 13 15 17 20 15 14 17 18 17 16 15 14 15 15 17 18 15 12 13 14 14 15 15 15 14 15 16 16 15 15 14 13 12 13 12 12 13 12 11 11 13 12 12 12 12 12 13 14 13 14 11 20 19 21 21 17 11 13 13 12 11 11 11 11 10 10 11 12 18 19 18 16 14 13 11 10 11 12 12 3 5
9 7 3 10 12 13 16 17 14 16 17 16 15 14 12 13 14 16 17 13 11 12 12 13 13 14 15 16 15 14 15 14 14 12 12 11 11 12 11 12 12 11 13 13 12 11 11 11 11 12 12 13 12 14 11 16 20 20 21 23 13 13 13 12 12 11 11 11 11 9 9 10 15 15 16 15 15 13 13 7 10 9 7 7 2
11 8 8 1 8 12 16 16 16 18 16 15 16 16 14 14 15 16 13 12 13 13 13 13 13 14 14 15 14 15 14 12 12 13 13 12 11 12 12 12 12 12 12 13 13 13 13 11 11 10 11 13 12 10 16 12 18 20 21 21 21 16 15 12 12 12 12 10 10 9 9 8 11 12 12 12 11 8 6 7 4 3 7 8 5
12 11 8 6 5 4 6 10 12 11 12 13 16 14 14 15 16 10 11 11 11 12 12 13 13 13 13 14 14 15 14 13 13 12 13 12 12 12 12 11 12 12 11 13 14 14 13 13 14 14 13 13 12 11 12 17 14 21 19 21 22 22 17 12 13 12 11 10 9 9 5 10 9 10 8 7 7 8 3 7 6 6 6 5 3
15 13 10 7 6 6 6 6 5 8 8 10 12 14 14 15 10 10 11 12 12 12 12 13 13 13 13 13 13 13 14 14 13 13 13 12 13 12 12 12 13 13 13 14 13 12 13 13 14 14 13 13 13 12 10 13 18 17 20 20 21 22 20 18 13 12 11 8 2 8 11 10 9 9 10 9 6 4 6 8 7 7 4 3 3
16 16 13 10 8 8 9 9 7 5 6 7 8 10 14 11 9 10 11 11 12 12 12 13 13 13 14 14 14 14 15 14 14 12 13 13 13 13 12 12 13 13 13 13 13 13 13 13 13 13 13 13 12 10 10 9 12 14 15 19 21 21 20 20 18 4 4 6 9 9 11 11 10 9 7 5 5 5 5 6 5 4 4 4 4
16 16 14 13 12 11 11 11 9 7 5 5 6 5 6 7 8 9 10 11 11 12 11 11 12 13 13 14 14 13 12 13 13 12 12 12 12 11 12 12 12 13 14 14 13 14 14 13 13 13 13 13 12 10 9 9 9 10 9 11 12 12 14 9 7 7 4 4 7 7 6 7 8 7 7 8 8 7 5 4 4 4 3 3 3
15 15 15 14 14 13 12 12 11 8 7 7 6 6 5 6 7 7 8 9 11 12 13 13 14 12 12 13 13 14 14 11 13 13 12 12 12 12 13 13 13 13 13 14 15 14 14 14 13 12 11 11 11 11 10 10 10 11 10 10 9 9 9 9 9 9 9 7 7 8 9 7 8 7 6 5 4 4 4 4 4 4 3 3 2
16 13 14 13 13 13 12 13 11 9 9 10 9 8 6 5 5 6 7 9 9 11 11 11 11 11 11 11 11 11 12 11 11 12 9 5 8 12 13 12 12 13 14 14 13 13 13 13 12 11 10 9 9 10 10 12 12 12 12 10 9 9 9 9 10 11 9 8 8 7 7 6 6 7 6 5 5 5 5 5 5 4 4 4 4
14 12 14 14 14 13 12 11 9 7 7 7 7 6 5 4 5 7 7 8 8 7 7 8 8 8 8 9 9 10 11 11 11 10 7 3 7 8 6 3 9 14 15 14 10 11 11 11 11 10 9 10 10 10 10 14 13 13 14 13 13 12 11 8 13 15 11 9 10 8 7 8 7 7 7 7 7 7 7 6 5 4 4 4 3
14 13 14 13 11 11 11 11 9 7 7 7 7 6 5 5 4 3 5 7 8 8 7 7 7 8 8 8 8 8 8 8 7 7 7 7 5 4 10 9 9 8 3 8 9 10 9 9 8 8 7 4 5 1 7 14 14 14 14 10 7 11 14 16 18 13 9 9 11 10 8 7 7 7 7 8 7 7 7 6 6 5 4 4 3
Wind_Direction
187 188 186 186 187 187 188 186 188 188 188 189 189 190 187 186 183 191 194 193 191 189 194 197 200 203 210 204 206 202 206 207 216 221 228 233 231 235 231 231 224 221 212 203 208 209 249 244 217 204 184 118 135 176 201 189 239 266 288 293 310 333 34 62 88 147 139 113 97 115 124 134 154 175 233 235 212 223 188 237 225 234 231 235 258
183 189 194 188 187 186 186 186 187 187 189 189 190 191 190 189 189 190 188 196 192 189 189 192 195 196 193 197 197 199 196 203 213 217 225 226 221 225 232 234 227 223 217 202 202 209 216 220 220 225 199 145 145 180 160 212 225 238 227 224 7 320 359 16 112 163 170 194 173 150 134 145 132 227 233 226 241 215 220 219 225 249 233 235 243
187 190 191 191 189 188 187 189 190 190 187 188 190 191 190 190 192 188 189 191 190 193 184 188 190 190 188 188 192 195 203 210 220 221 222 229 225 220 223 222 219 224 219 207 208 207 214 214 225 223 218 184 155 154 157 171 192 229 219 217 149 146 73 109 153 307 103 100 82 186 183 262 157 227 229 247 249 258 247 249 229 243 242 244 242
186 187 189 191 190 189 189 189 189 189 189 190 190 191 190 192 190 190 189 189 190 191 188 188 184 179 179 178 183 198 196 197 211 224 229 232 231 223 218 215 213 222 213 211 212 208 209 217 224 225 216 211 219 199 176 179 161 195 218 212 193 190 188 161 205 318 292 151 172 4 59 292 297 157 251 219 227 242 246 238 203 238 209 226 237
187 188 190 191 192 192 190 189 187 189 191 191 190 190 191 192 191 189 188 191 190 188 187 181 173 171 170 169 174 189 194 194 205 220 220 219 226 224 222 210 208 214 209 208 212 209 209 214 223 224 229 217 221 227 223 225 195 191 197 206 198 229 192 162 185 220 203 8 105 173 169 214 330 10 308 225 219 228 223 234 207 252 243 204 258
191 190 190 191 192 190 190 190 190 191 192 191 189 189 189 191 190 188 190 191 192 189 183 185 179 177 178 185 186 193 202 200 205 210 209 210 220 222 218 208 203 204 206 206 210 209 209 213 211 225 226 229 227 237 228 178 194 214 218 229 192 208 258 177 188 147 152 93 22 9 345 352 333 19 295 73 284 260 265 256 249 252 244 239 241
196 196 192 191 192 193 192 191 192 193 193 189 188 189 189 188 188 188 189 189 190 188 184 190 182 186 187 190 191 192 198 206 207 210 213 207 214 216 209 201 200 208 207 201 200 202 207 207 210 216 225 223 223 226 221 222 205 210 215 227 198 150 188 212 216 198 122 223 219 245 284 269 314 276 350 327 294 121 245 256 235 235 251 255 252
192 193 193 193 192 193 194 192 191 194 189 187 187 188 188 187 184 187 189 190 188 183 183 184 185 189 191 195 197 198 201 200 195 200 201 200 207 220 219 212 204 206 208 193 195 194 199 204 207 215 217 226 217 228 234 229 191 176 199 220 178 174 191 215 223 226 229 218 208 235 231 267 276 265 282 306 314 309 274 214 234 244 253 256 263
195 193 194 193 194 195 194 194 194 191 190 189 187 186 184 184 183 186 189 188 187 183 183 187 189 190 191 194 197 201 199 199 188 193 199 200 211 214 215 216 207 201 206 203 193 193 192 201 202 211 217 219 219 232 232 224 214 200 178 187 191 185 200 206 206 218 240 245 190 225 253 255 224 246 279 241 279 297 296 292 292 193 244 248 256
202 199 195 194 195 196 196 194 191 192 190 189 186 184 183 183 185 187 191 189 186 185 186 188 191 190 193 196 197 194 193 193 191 189 193 191 205 209 208 210 210 203 201 203 196 194 196 195 201 210 218 221 222 235 235 225 212 211 208 210 201 196 180 200 220 217 234 269 245 240 228 222 235 231 226 234 239 247 280 302 316 318 310 304 244
199 198 198 197 197 196 192 193 193 191 190 187 185 185 185 186 186 188 190 188 187 186 187 190 191 192 195 196 197 196 190 189 187 192 190 192 204 207 206 206 204 207 204 200 203 198 197 195 202 206 212 215 222 230 232 233 226 217 214 213 210 219 196 199 214 220 219 234 232 231 243 253 274 292 301 289 287 280 281 291 297 314 320 315 303
194 194 196 193 193 195 194 196 193 192 189 186 187 187 187 187 186 188 189 188 188 187 190 193 192 195 197 196 198 198 191 191 194 195 190 194 200 203 201 200 203 205 207 205 202 200 192 194 197 197 198 207 217 225 231 231 237 225 213 214 224 220 216 198 215 217 215 215 239 234 238 254 265 269 295 292 266 285 293 294 298 304 296 285 299
191 193 193 192 191 190 193 192 189 189 191 187 188 188 187 186 185 186 189 187 187 188 191 193 194 197 196 196 197 196 197 196 195 197 191 193 195 197 191 201 200 207 205 207 205 198 191 190 190 191 193 201 212 217 223 223 229 229 222 219 229 224 214 208 209 224 224 234 245 250 255 260 259 255 257 276 273 268 266 284 292 310 294 297 298
193 191 193 195 192 189 190 190 187 186 190 189 189 189 187 186 184 188 190 187 186 189 191 194 196 197 196 195 194 193 198 199 199 200 195 194 190 195 198 201 203 208 204 202 202 199 200 197 193 195 193 191 196 208 216 219 219 227 223 221 225 226 217 213 226 228 221 228 234 243 236 237 252 247 244 250 263 251 256 270 292 288 281 288 283
193 192 194 195 193 189 190 190 188 189 192 191 190 188 185 185 184 187 188 187 186 188 191 194 196 197 197 196 194 195 198 200 203 202 197 191 194 197 197 202 207 206 203 194 192 196 202 199 197 198 192 190 191 198 207 212 215 223 226 222 230 226 214 214 224 221 224 219 219 227 246 253 248 249 254 247 261 260 264 272 279 299 300 295 288
192 193 194 194 188 186 188 188 189 190 190 192 191 186 183 183 183 186 187 185 187 189 192 193 195 194 195 195 197 196 197 199 200 195 195 191 191 195 195 199 206 202 195 192 194 195 199 202 198 202 197 193 193 196 201 208 208 215 221 220 222 216 217 218 228 224 233 233 237 232 232 256 245 246 248 255 249 262 262 258 256 273 293 300 301
195 196 194 191 186 185 190 191 189 188 190 192 190 185 183 182 183 186 189 186 188 190 192 193 193 192 194 194 196 197 197 199 202 201 204 199 196 197 200 204 201 201 198 198 199 194 198 200 202 204 200 200 197 197 200 206 206 211 218 218 221 221 216 227 228 224 238 236 234 228 238 248 249 234 247 249 242 240 247 249 250 266 274 281 296
196 195 191 185 185 187 190 191 190 190 190 188 186 181 181 182 185 186 187 188 188 189 192 192 191 192 192 195 196 198 199 203 205 202 199 195 193 195 201 196 201 202 201 200 197 195 197 196 201 201 200 202 204 203 202 205 207 217 219 219 223 217 215 224 223 229 232 223 228 225 221 238 237 236 243 242 234 232 236 232 235 241 239 258 274
195 192 186 184 188 188 191 194 193 191 187 188 183 184 186 187 188 189 190 191 189 190 192 192 191 191 193 194 194 196 198 201 202 198 191 195 199 197 201 202 198 195 191 195 197 202 199 198 202 203 199 200 200 206 201 204 205 218 221 223 216 212 221 229 226 220 231 223 220 228 218 228 224 237 240 233 222 219 226 229 232 224 227 237 254
197 193 191 190 191 191 191 192 191 190 187 186 184 187 190 189 186 190 191 189 189 191 190 192 192 192 192 191 193 194 195 196 196 191 194 198 201 201 201 201 197 196 200 198 204 206 204 205 205 208 208 203 201 203 202 203 204 219 224 227 223 210 219 230 239 228 227 220 223 229 226 225 220 222 234 230 224 221 224 231 227 219 223 224 232
197 194 194 193 194 195 193 192 193 191 186 184 186 190 191 190 190 190 189 188 189 190 190 190 188 193 189 188 189 191 195 196 197 196 199 200 200 200 201 203 191 199 198 201 204 207 206 208 212 210 212 206 200 199 197 199 205 221 231 234 231 220 221 231 232 234 228 224 227 232 234 231 219 231 236 242 240 231 225 232 232 229 234 219 218
195 196 196 194 193 194 192 190 189 188 186 186 189 188 188 190 191 189 190 189 190 189 191 188 188 190 191 190 192 193 195 196 198 197 199 199 199 198 197 193 195 197 197 205 206 207 208 209 212 212 211 211 202 198 198 197 205 211 224 231 234 235 238 237 233 235 230 224 224 231 236 232 219 229 240 243 247 246 235 237 232 233 239 240 217
196 195 196 194 190 187 186 182 183 187 187 186 187 188 190 191 189 189 190 192 192 191 189 185 186 188 190 190 189 191 190 194 196 197 201 202 201 200 195 195 202 204 200 207 207 208 204 204 211 214 211 212 209 205 204 204 205 208 213 220 221 221 227 234 234 233 234 230 228 232 238 230 217 223 231 240 243 242 244 243 241 237 239 244 235
199 198 196 193 186 177 177 179 181 182 183 185 189 190 189 189 190 189 191 191 190 189 186 184 185 189 189 187 188 190 191 193 197 201 202 203 202 200 195 198 201 205 200 201 205 205 202 203 209 213 213 213 210 209 207 207 208 209 212 215 218 221 227 232 239 239 233 231 233 237 241 235 227 228 232 236 234 235 236 237 243 242 241 244 242
192 190 187 181 179 174 179 182 183 184 184 185 187 187 186 188 188 190 191 188 187 187 186 185 188 191 190 190 190 190 192 196 199 200 201 201 202 200 196 199 200 205 206 198 198 201 204 205 211 214 214 213 212 211 210 213 213 212 214 217 218 219 224 232 237 243 242 233 235 238 244 237 232 236 240 239 239 233 233 240 249 249 246 247 242
194 188 175 182 187 186 187 187 187 187 187 183 184 184 186 186 188 188 186 185 186 185 185 184 187 191 191 191 191 192 195 197 199 200 200 199 199 198 196 197 199 203 204 202 196 199 203 207 211 213 213 213 211 211 211 214 216 214 213 218 219 220 225 227 233 237 241 241 235 238 237 234 242 236 242 245 244 240 239 243 247 250 252 252 250
202 189 188 188 186 187 186 186 186 188 188 185 187 187 186 184 185 186 186 185 183 182 182 182 185 190 189 191 189 191 193 196 196 198 197 197 198 198 198 198 197 203 203 204 203 203 204 207 208 210 214 213 211 212 213 212 216 218 215 216 222 222 224 225 231 235 236 235 235 237 233 235 240 234 239 243 243 253 254 243 240 246 247 247 254
186 186 187 189 194 190 187 186 187 187 185 183 187 188 187 182 181 183 183 182 180 179 178 180 183 187 187 188 189 189 192 194 193 192 193 195 196 197 198 198 197 201 205 207 207 206 205 205 209 211 213 212 210 211 212 212 213 215 217 218 219 224 226 227 229 231 233 236 236 237 238 233 231 234 235 240 239 242 246 260 246 249 250 259 262
197 189 189 194 193 191 185 184 186 184 181 182 184 185 183 177 179 181 182 183 176 174 176 178 181 186 187 184 184 188 190 189 188 186 189 192 193 194 194 195 196 201 205 208 210 209 206 206 210 211 211 210 213 214 213 210 211 213 217 222 221 223 225 230 234 234 233 234 237 238 239 239 235 233 232 234 240 240 250 260 254 261 265 267 272
223 200 199 197 196 191 186 182 179 183 181 182 182 181 180 175 181 182 183 182 173 174 175 180 185 186 183 178 180 183 185 185 186 187 188 190 193 194 195 195 197 201 204 207 209 209 208 206 207 208 208 211 215 217 208 200 202 212 214 220 223 225 227 231 233 236 237 236 237 242 243 236 225 221 224 228 232 235 234 242 254 259 261 267 268
230 214 201 199 195 189 182 179 182 183 178 183 181 179 181 184 182 181 180 180 176 169 174 181 187 186 180 179 181 185 183 186 189 190 190 193 196 197 199 200 202 203 204 202 204 206 209 211 211 210 210 213 217 218 201 194 200 206 216 221 221 225 224 227 230 232 238 240 243 242 247 234 216 218 227 229 233 231 233 236 241 245 250 257 269
242 228 211 201 197 185 179 182 186 185 182 181 177 173 177 185 184 184 181 179 179 177 181 184 184 177 177 180 185 184 185 187 186 190 190 192 195 196 197 197 198 200 200 201 203 207 211 214 214 215 216 217 221 215 194 194 197 201 207 221 228 229 228 226 229 232 236 238 241 245 244 246 241 240 243 229 223 228 234 236 238 241 240 242 243
248 240 223 206 197 188 183 186 184 182 182 181 175 177 181 183 180 180 176 178 180 181 180 180 181 179 181 181 181 182 184 186 189 190 190 189 192 194 196 197 201 202 200 203 207 209 211 212 214 215 219 221 226 205 192 193 195 195 201 212 230 234 234 233 231 230 233 235 238 240 246 245 250 227 227 243 251 238 221 229 238 241 244 240 241
255 243 225 206 193 189 185 181 180 180 183 178 175 179 177 177 171 166 171 177 176 179 178 180 179 180 180 180 181 183 186 189 188 189 189 191 193 197 201 202 203 200 202 206 208 210 210 210 213 217 220 224 227 202 190 192 193 194 197 201 225 231 236 241 240 235 232 234 234 238 241 245 245 242 238 236 239 245 253 246 237 235 240 242 235
256 235 218 192 178 180 180 179 181 179 172 167 171 171 164 168 170 170 172 169 171 176 176 177 180 180 179 181 183 185 188 188 187 187 189 192 194 197 199 201 201 201 200 203 206 209 211 213 214 217 219 224 227 201 186 190 193 193 195 195 219 227 236 240 242 242 238 234 236 236 239 245 247 244 239 231 238 245 253 267 271 273 272 275 276
257 227 206 189 185 184 184 182 177 170 174 172 169 171 172 173 171 171 175 174 172 174 173 176 180 182 184 184 184 185 188 187 187 187 191 194 194 194 196 197 202 204 205 205 207 210 211 213 215 217 221 225 227 197 189 190 191 193 188 195 211 221 231 238 240 240 237 235 235 237 240 242 246 246 238 217 225 241 255 265 269 271 276 277 277
259 224 201 176 167 159 172 154 164 171 170 170 166 168 169 170 173 175 173 174 176 177 181 182 186 186 186 185 186 186 187 188 187 189 193 194 194 195 196 194 200 204 204 205 206 208 211 215 216 216 220 226 230 195 189 189 191 188 180 203 203 214 224 232 238 236 237 237 236 235 234 242 246 246 239 221 220 215 243 256 264 269 274 281 284
259 214 170 156 155 151 144 163 165 170 168 164 162 163 163 166 172 173 172 176 180 184 182 181 186 188 187 186 186 186 187 188 188 192 193 195 196 197 197 195 200 204 209 209 208 212 215 217 217 218 217 223 229 200 184 188 189 182 186 198 202 209 224 228 236 236 237 238 237 229 233 240 245 247 242 226 218 194 234 246 258 267 273 277 282
253 200 171 161 146 152 151 152 158 164 165 158 161 163 162 163 171 174 177 180 185 183 182 183 186 186 185 184 184 185 187 188 191 194 195 195 196 197 197 196 202 205 211 211 211 213 215 216 218 220 216 223 231 210 180 187 187 184 190 203 205 212 222 231 230 235 233 236 238 228 222 232 241 249 248 236 215 195 234 241 254 266 268 272 275
259 192 160 139 134 134 152 157 164 165 156 157 163 167 172 171 173 174 178 185 186 185 181 179 181 182 184 183 184 185 189 192 192 194 196 197 194 195 196 195 199 203 207 211 209 212 215 217 217 220 221 221 227 230 187 185 184 186 191 199 209 217 229 228 226 231 236 238 234 239 225 218 231 242 249 248 225 199 226 246 258 263 268 265 284
356 157 137 146 153 155 161 166 163 149 159 164 164 165 168 167 169 176 189 190 182 167 163 172 179 184 184 184 186 188 190 194 195 194 194 195 194 196 195 196 199 203 208 211 212 213 217 221 222 222 226 224 223 224 191 181 185 187 191 198 208 214 219 222 226 226 230 236 237 233 242 213 214 227 236 242 239 218 219 239 250 256 262 22 61
33 28 127 158 164 161 160 159 149 155 160 162 160 163 159 164 176 190 194 180 159 165 174 177 179 185 188 190 191 192 192 195 197 192 191 194 194 195 196 196 200 201 205 208 209 213 217 223 225 227 228 228 222 209 219 180 186 189 191 198 208 214 214 219 225 231 231 235 236 238 236 215 201 211 223 231 234 228 219 226 239 258 349 26 51
25 32 20 72 160 166 168 160 161 164 162 159 161 164 167 172 186 192 177 170 164 173 172 174 176 183 186 187 189 186 186 193 193 191 187 188 188 190 193 192 193 198 202 207 213 220 223 222 229 231 236 235 230 207 207 194 188 192 193 197 208 217 208 213 225 232 231 233 237 235 241 193 182 197 209 219 227 220 194 226 242 71 96 112 140
34 34 31 34 69 102 122 145 160 161 156 157 164 164 170 181 192 167 167 163 162 167 167 173 176 183 182 185 187 188 189 195 193 188 189 192 192 191 193 195 194 199 205 216 222 223 228 230 235 237 236 238 234 230 197 200 188 193 193 197 207 218 216 213 221 233 235 235 235 238 202 141 160 168 174 168 160 165 167 143 136 121 121 146 148
34 40 43 47 68 84 102 109 116 140 155 163 168 166 170 181 169 153 168 167 168 167 170 178 180 183 184 188 190 191 193 195 194 188 189 193 195 191 196 201 205 206 214 220 222 220 223 228 231 233 236 236 235 223 215 195 193 187 195 199 207 212 219 218 220 231 234 242 117 106 119 143 146 141 136 132 132 129 118 133 125 123 134 159 172
23 24 29 56 85 85 90 94 84 114 146 158 170 167 170 169 146 160 166 163 164 167 172 178 181 183 186 189 190 193 195 194 192 190 192 193 194 193 196 195 199 202 207 212 216 218 222 225 230 232 233 234 227 217 211 200 188 192 198 203 206 210 215 215 217 251 32 100 113 116 117 118 121 128 141 161 162 137 127 110 123 159 179 175 174
19 22 23 41 63 84 89 91 83 55 92 131 149 151 128 126 153 157 161 163 168 170 174 176 183 185 185 190 192 194 193 192 192 191 193 194 195 195 195 195 196 203 209 214 214 219 223 226 229 232 232 232 227 214 204 207 189 189 199 201 209 219 220 216 218 224 172 120 118 129 133 121 110 119 95 94 106 112 113 130 161 190 168 145 139
15 22 24 33 46 58 72 86 87 81 72 70 76 86 116 138 151 161 164 165 169 175 182 186 186 186 187 189 192 191 190 191 192 193 195 197 199 199 198 197 197 198 201 210 218 219 219 222 223 222 221 221 220 228 210 204 201 196 199 194 189 195 186 189 197 198 198 163 133 106 117 129 131 135 135 135 131 133 143 161 171 161 144 119 93
11 17 23 30 31 43 53 65 71 76 88 91 93 99 112 134 153 162 166 176 181 178 181 182 184 186 188 186 190 189 195 197 192 195 192 186 201 202 201 205 204 198 199 199 205 208 208 212 214 213 210 213 212 210 210 202 204 193 192 191 186 191 189 186 190 160 144 129 134 150 153 151 159 151 145 142 142 152 160 161 160 156 147 157 180
10 25 30 27 27 32 42 49 48 38 48 54 61 59 60 86 132 160 173 177 167 167 176 186 187 189 184 181 188 193 196 197 195 186 145 116 48 58 23 238 210 199 200 211 204 207 204 207 216 219 210 207 209 215 209 186 193 189 197 193 191 185 178 165 141 143 152 156 174 178 169 167 163 160 154 158 165 167 160 160 154 154 168 156 157
5 13 21 22 17 18 24 37 43 37 42 43 46 42 45 40 27 83 155 160 164 169 177 185 179 193 189 183 184 188 190 190 180 150 159 148 144 95 51 42 15 359 294 227 227 239 243 229 211 219 205 207 275 264 147 175 189 193 196 189 135 125 127 127 135 134 163 175 181 188 179 174 165 168 167 166 161 159 162 159 154 156 146 136 133